COSMOS 2251 DEB

Satellite information

Favourite Embed

Satellite Type and Status

DEBRISIN ORBIT

Key statistics

Satellite COSMOS 2251 DEB at a glance.

Uptime

11649

Days in orbit

Revolutions

≈ 14.2

Per day

Orbit

LEO

Low Earth Orbit

Inclination

73.9

Latest

Satellite identification and parameters

Extended collection of information and parameters for COSMOS 2251 DEB.

Object identification

Identified? True

Debris? True

Object name: COSMOS 2251 DEB

International designator: 1993-036ATC

Object number (NORAD): 35830

Object ID (CCSDS): 35830

Country: COMMONWEALTH OF INDEPENDENT STATES (CIS)

Current information (Y/N): Y

RCS size: SMALL

Orbital parameters

Period: 101.232 minutes

Inclination: 73.8635 deg

SMA: 7195.11 km

Apoapsis: 901.972 km

Periapsis: 731.978 km

RAAN: 309.8143 deg

Eccentricy: 0.0118132

Argument of periapsis: 322.0529 deg

Mean anomaly: 37.2332 deg

Mean motion: 14.2248138 rev/day

Mean motion (dot): 0.00003717 rev/day2

B* drag term: 0.0015627 1/REarth

Two-line elements (TLE)

Creation date: May 5, 2025, 2:11 a.m.

Reference frame: TEME

Reference center: EARTH

Epoch: May 4, 2025, 6:20 p.m. UTC

TLE line 0: 0 COSMOS 2251 DEB

TLE line 1: 1 35830U 93036ATC 25124.76394024 .00003717 00000-0 15627-2 0 9990

TLE line 2: 2 35830 73.8635 309.8143 0118132 322.0529 37.2332 14.22481380581063

Live tracking on map

Real-time ground track for satellite COSMOS 2251 DEB.

In-orbit conjunctions

A list of the most updated potential collisions computed for object COSMOS 2251 DEB.

Target Orbit TCA Probability of collision Miss distance Type
CZ-4 DEB SSO 2024-09-25 15:01:33 0.0006552195 569.0 (m) DEBRIS
COSMOS 2237 LEO 2024-08-11 20:23:39 0.0002863761 199.0 (m) PAYLOAD

Associated space launch

Military communications satellite. Destroyed in a collision with Iridium 33.

COSMOS 2251 DEB was lifted into orbit during the mission ‘Kosmos-3M | Strela-2M 51’, on board a Kosmos-3M space rocket.

The launch took place on June 16, 1993, 4:17 a.m. from 132/1 (132L).

For more information about the launch, click the button.

Launch to space Kosmos-3M | Strela-2M 51
Kosmos-3M | Strela-2M 51

Agency: N/A

Status: Launch Successful

Launch date: June 16, 1993, 4:17 a.m. UTC

Rocket: Kosmos-3M

Launch pad: 132/1 (132L)

Location: Plesetsk Cosmodrome, Russian Federation

...

Latest news about this satellite

There are no fresh news available about this satellite. Check back as we update our databases every day.


Newsletter sign-up

Weekly statistics, charts and insights to help you stay on top of the space industry.